Location: Running Springs
(34.2078°N, 117.1092°W)
Time: 15:21:03
(UTC+00:00)

Cosmos 1867 - Pass Details

Date: 13 April 2024
Orbit: 772 x 802 km, 65.0° (Epoch: 26 May)

Event Time Altitude Azimuth Distance (km) Brightness Sun altitude
Rises 12:11:29 0° 317° (NW) 3,313 6.6 -14.2°
Reaches altitude 10° 12:14:15 10° 305° (NW) 2,377 5.7 -13.7°
Maximum altitude 12:18:42 26° 251° (WSW) 1,529 4.5 -12.8°
Drops below altitude 10° 12:23:08 10° 196° (SSW) 2,355 5.7 -11.9°
Sets 12:25:53 0° 183° (S) 3,276 6.5 -11.4°
